Regional Weather Roundup
Issued by NWS

Home | Current Version | Previous Version | Graphics & Text | Print | Product List | Glossary On
Versions: 1 2 3 4 5 6 7 8 9 10 11 12 13 14 15 16 17 18 19 20 21 22 23 24 25 26 27 28 29 30 31 32 33 34 35 36 37 38 39 40 41 42 43 44 45 46 47 48 49 50
000
ASUS45 KABQ 031110
RWRNM
NEW MEXICO REGIONAL WEATHER ROUNDUP
NATIONAL WEATHER SERVICE ALBUQUERQUE NM
500 AM MDT TUE MAY 03 2016

NOTE: "FAIR" MEANS FEW OR NO CLOUDS BELOW 12,000 FEET AGL WITH NO
       SIGNIFICANT WEATHER OR OBSTRUCTIONS TO VISION.

      THIS PRODUCT IS RELEASED AS TWO VERSIONS.  ONE VERSION NEAR
      THE TOP OF THE HOUR CONTAINING PRELIMINARY DATA FROM ALBUQUERQUE
      AND OTHER STATIONS.  A FINAL VERSION WITH ADDITIONAL DATA IS
      ISSUED ABOUT 10 MINUTES AFTER THE HOUR.

NMZ501-503-504-510>518-031200-
NORTHWEST PLATEAU/NORTHCENTRAL MOUNTAINS

CITY           SKY/WX    TMP DP  RH WIND       PRES   REMARKS
FARMINGTON     FAIR      38  35  89 E3        30.18R
LOS ALAMOS     FAIR      42  31  65 NW5       30.21S
SANTA FE       FAIR      42  35  76 SW3       30.17S
TAOS           FAIR      30  25  80 N5        30.21R WCI  25
ANGEL FIRE     FAIR      24  23  95 CALM      30.24R

$$
NMZ402-403-502-505>509-031200-
WESTCENTRAL MOUNTAINS/SOUTHWEST MOUNTAINS

CITY           SKY/WX    TMP DP  RH WIND       PRES   REMARKS
GALLUP         FAIR      40  37  89 CALM      30.21S
GRANTS         CLOUDY    39  39  99 NW7       30.23S WCI  34
SILVER CITY      N/A     41  25  52 N5        30.14S

$$
NMZ407-409-411-412-031200-
SOUTHERN DESERTS

CITY           SKY/WX    TMP DP  RH WIND       PRES   REMARKS
LORDSBURG      FAIR      50  30  46 S6        30.06S
DEMING         FAIR      49  28  44 NE7       30.08S
LAS CRUCES     FAIR      50  30  45 E3        30.10S
HOLLOMAN AFB   FAIR      47  28  46 N5        30.10R
ALAMOGORDO     FAIR      48  27  43 N9        30.12S
T OR C         FAIR      50  37  61 N3        30.13R

$$
NMZ519>523-031200-
CENTRAL VALLEYS/CENTRAL HIGHLANDS

CITY           SKY/WX    TMP DP  RH WIND       PRES   REMARKS
ALBUQUERQUE    FAIR      49  38  65 NW5       30.16R
DOUBLE EAGLE   FAIR      40  37  86 NW5       30.18S
MORIARTY ARPT  FAIR      37  29  73 N8        30.18R WCI  30
CLINES CORNERS FAIR      41  31  67 N12       30.15F
BELEN          FAIR      43  40  88 NW5       30.16R
SOCORRO        FAIR      43  37  79 CALM      30.14F

$$
NMZ524>526-539-540-031200-
SOUTHCENTRAL MOUNTAINS

CITY           SKY/WX    TMP DP  RH WIND       PRES   REMARKS
RUIDOSO          N/A     39  28  65 SW5       30.19F

$$
NMZ527>531-031200-
NORTHEAST HIGHLANDS/NORTHEAST PLAINS

CITY           SKY/WX    TMP DP  RH WIND       PRES   REMARKS
LAS VEGAS      FAIR      37  30  75 N7        30.15F WCI  32
RATON          FAIR      31  28  89 E7        30.14S WCI  24
CLAYTON        MOCLDY    42  35  76 NW10      30.10R HAZE

$$
NMZ532>537-031200-
EASTCENTRAL PLAINS

CITY           SKY/WX    TMP DP  RH WIND       PRES   REMARKS
TUCUMCARI      FAIR      42  34  73 W3        30.07F
CANNON AFB     FAIR      43  33  68 CALM      30.10S
CLOVIS AIRPORT FAIR      41  30  65 S6        30.11F

$$
NMZ028-029-538-031200-
SOUTHEAST PLAINS

CITY           SKY/WX    TMP DP  RH WIND       PRES   REMARKS
ROSWELL        FAIR      40  29  64 SW3       30.08F
ARTESIA        FAIR      45  30  57 CALM      30.11R
CARLSBAD       FAIR      40  30  67 S3        30.08F
HOBBS          FAIR      43  37  81 S3        30.12S


$$



USA.gov is the U.S. government's official web portal to all federal, state and local government web resources and services.